EW5897 Weather Reports


Display with metric or nautical units.
time (UTC)temp
F
wind
direction
speed
MPH
gust
MPH
rain 1hr
in
rain 24hr
in
rain mn
in
humidity
%
barometer
mb
20260504170411 34 290 15.0 25.0 0.00 0.00 0.00 74 1006.9
20260504150857 33 302 18.0 26.0 0.00 0.00 0.00 68 1006.0
20260504140909 33 304 18.0 23.0 0.00 0.00 0.00 65 1005.6
20260504110410 33 316 8.0 17.0 0.00 0.00 0.00 84 1003.2
20260504080904 34 226 8.0 13.0 0.00 0.00 0.00 83 1002.4
20260504045404 38 332 11.0 20.0 0.00 0.00 0.00 77 1001.1
20260504042908 38 337 12.0 25.0 0.00 0.00 0.00 75 1000.8
20260504041353 39 333 16.0 30.0 0.00 0.00 0.00 74 1000.6
20260504035402 40 351 16.0 26.0 0.00 0.00 0.00 71 1000.0
20260504033412 41 346 18.0 28.0 0.00 0.00 0.00 70 999.3
20260504031414 43 329 18.0 28.0 0.00 0.00 0.00 68 999.3
20260504025853 44 327 18.0 29.0 0.00 0.00 0.00 66 999.3
20260504023901 46 322 20.0 35.0 0.00 0.00 0.00 63 998.9
20260504022359 47 248 23.0 39.0 0.00 0.00 0.00 59 998.9
20260504020415 49 259 23.0 33.0 0.00 0.00 0.00 58 998.4
20260504014902 51 290 18.0 30.0 0.00 0.00 0.00 57 998.1
20260504012901 53 263 17.0 30.0 0.00 0.00 0.00 46 997.3
20260504010855 53 258 13.0 22.0 0.00 0.00 0.00 53 997.2
20260504005353 53 267 9.0 16.0 0.00 0.00 0.00 58 997.1
20260504003409 52 250 11.0 18.0 0.00 0.00 0.00 62 996.9
20260504001905 51 232 9.0 15.0 0.00 0.00 0.00 70 997.1
20260503235400 50 221 10.0 21.0 0.00 0.00 0.00 74 997.4
20260503233404 52 265 23.0 32.0 0.00 0.00 0.00 66 998.3
20260503231402 57 267 20.0 36.0 0.00 0.00 0.00 49 997.3
20260503225856 58 252 18.0 36.0 0.00 0.00 0.00 50 996.7
20260503223914 59 264 23.0 33.0 0.00 0.00 0.00 53 996.4
20260503222343 58 246 17.0 31.0 0.00 0.00 0.00 56 995.9
20260503220349 66 233 18.0 30.0 0.00 0.00 0.00 38 995.0
20260503214850 66 234 18.0 26.0 0.00 0.00 0.00 38 995.2
20260503212858 67 225 19.0 28.0 0.00 0.00 0.00 36 995.5
20260503210902 65 245 19.0 24.0 0.00 0.00 0.00 38 996.2
20260503204914 65 244 15.0 22.0 0.00 0.00 0.00 38 996.8
20260503202913 64 234 16.0 27.0 0.00 0.00 0.00 39 997.2
20260503200914 65 235 22.0 30.0 0.00 0.00 0.00 36 997.4
20260503195358 66 238 22.0 29.0 0.00 0.00 0.00 36 997.7
20260503193401 66 242 20.0 28.0 0.00 0.00 0.00 36 998.0
20260503191408 66 240 19.0 33.0 0.00 0.00 0.00 36 998.2
20260503185859 67 264 22.0 29.0 0.00 0.00 0.00 35 998.3
20260503183914 67 244 22.0 28.0 0.00 0.00 0.00 36 998.5
20260503181913 66 227 22.0 30.0 0.00 0.00 0.00 39 998.5
20260503180357 67 236 22.0 34.0 0.00 0.00 0.00 38 998.8
20260503174433 67 227 24.0 31.0 0.00 0.00 0.00 40 999.0
20260503172930 66 225 22.0 32.0 0.00 0.00 0.00 44 999.1